Time,TemperatureF,DewpointF,PressureIn,WindDirection,WindDirectionDegrees,WindSpeedMPH,WindSpeedGustMPH,Humidity,HourlyPrecipIn,Conditions,Clouds,dailyrainin,SolarRadiationWatts/m^2,SoftwareType,DateUTC
2013-05-16 00:00:00,75.8,60.5,29.91,NNE,18,0.0,7.0,59,0.00,,SCT,0.00,0.00,VWS V14.01,2013-05-16 04:00:00,
2013-05-16 00:01:00,75.6,60.3,29.91,NNE,18,0.0,2.0,59,0.00,,SCT,0.00,0.00,VWS V14.01,2013-05-16 04:01:00,
2013-05-16 00:06:00,75.1,60.3,29.91,NNE,18,0.0,2.0,60,0.00,,SCT,0.00,0.00,VWS V14.01,2013-05-16 04:06:00,
2013-05-16 00:11:00,74.8,61.8,29.91,North,11,0.0,4.0,64,0.00,,SCT,0.00,0.00,VWS V14.01,2013-05-16 04:11:00,
2013-05-16 00:16:00,74.2,59.4,29.91,NNE,14,1.0,4.0,60,0.00,,SCT,0.00,0.00,VWS V14.01,2013-05-16 04:16:00,
2013-05-16 00:21:00,74.8,57.6,29.91,NNW,341,6.0,6.0,55,0.00,,SCT,0.00,0.00,VWS V14.01,2013-05-16 04:21:00,
2013-05-16 00:26:00,77.0,57.0,29.91,North,360,7.0,7.0,50,0.00,,SCT,0.00,0.00,VWS V14.01,2013-05-16 04:26:00,
2013-05-16 00:31:00,78.6,56.7,29.91,North,355,5.0,7.0,47,0.00,,SCT,0.00,0.00,VWS V14.01,2013-05-16 04:31:00,
2013-05-16 00:36:00,79.5,56.9,29.91,NNE,30,5.0,7.0,46,0.00,,SCT,0.00,0.00,VWS V14.01,2013-05-16 04:36:00,
2013-05-16 00:41:00,79.7,57.1,29.91,NNE,26,6.0,9.0,46,0.00,,SCT,0.00,0.00,VWS V14.01,2013-05-16 04:41:00,
2013-05-16 00:46:00,79.7,56.5,29.91,NNE,27,6.0,12.0,45,0.00,,SCT,0.00,0.00,VWS V14.01,2013-05-16 04:46:00,
2013-05-16 00:51:00,79.8,56.6,29.91,NNE,24,4.0,12.0,45,0.00,,SCT,0.00,0.00,VWS V14.01,2013-05-16 04:51:00,
2013-05-16 00:56:00,79.6,57.0,29.91,NE,40,4.0,12.0,46,0.00,,SCT,0.00,0.00,VWS V14.01,2013-05-16 04:56:00,
2013-05-16 01:00:00,79.7,56.5,29.91,NE,51,12.0,12.0,45,0.00,,SCT,0.00,0.00,VWS V14.01,2013-05-16 05:00:00,
2013-05-16 01:01:00,79.6,55.8,29.91,NNE,28,5.0,12.0,44,0.00,,SCT,0.00,0.00,VWS V14.01,2013-05-16 05:01:00,
2013-05-16 01:06:00,79.4,56.2,29.91,NNE,32,5.0,12.0,45,0.00,,SCT,0.00,0.00,VWS V14.01,2013-05-16 05:06:00,
2013-05-16 01:11:00,79.4,56.2,29.91,NNE,30,3.0,12.0,45,0.00,,SCT,0.00,0.00,VWS V14.01,2013-05-16 05:11:00,
2013-05-16 01:16:00,79.7,55.9,29.91,NE,37,4.0,12.0,44,0.00,,SCT,0.00,0.00,VWS V14.01,2013-05-16 05:16:00,
2013-05-16 01:21:00,79.6,55.8,29.91,NE,38,4.0,12.0,44,0.00,,SCT,0.00,0.00,VWS V14.01,2013-05-16 05:21:00,
2013-05-16 01:26:00,79.6,55.8,29.91,NE,48,6.0,12.0,44,0.00,,SCT,0.00,0.00,VWS V14.01,2013-05-16 05:26:00,
2013-05-16 01:31:00,80.0,54.9,29.90,NE,40,6.0,12.0,42,0.00,,SCT,0.00,0.00,VWS V14.01,2013-05-16 05:31:00,
2013-05-16 01:36:00,80.1,55.6,29.90,NE,44,8.0,12.0,43,0.00,,SCT,0.00,0.00,VWS V14.01,2013-05-16 05:36:00,
2013-05-16 01:41:00,80.1,55.0,29.90,NE,45,13.0,15.0,42,0.00,,SCT,0.00,0.00,VWS V14.01,2013-05-16 05:41:00,
2013-05-16 01:46:00,80.4,55.2,29.90,ENE,75,6.0,17.0,42,0.00,,SCT,0.00,0.00,VWS V14.01,2013-05-16 05:46:00,
2013-05-16 01:51:00,80.5,54.7,29.90,NE,40,7.0,17.0,41,0.00,,SCT,0.00,0.00,VWS V14.01,2013-05-16 05:51:00,
2013-05-16 01:56:00,80.7,54.8,29.90,NE,40,8.0,14.0,41,0.00,,SCT,0.00,0.00,VWS V14.01,2013-05-16 05:56:00,
2013-05-16 02:00:00,80.6,54.8,29.90,ENE,60,11.0,17.0,41,0.00,,SCT,0.00,0.00,VWS V14.01,2013-05-16 06:00:00,
2013-05-16 02:01:00,80.5,54.7,29.90,NE,53,10.0,14.0,41,0.00,,SCT,0.00,0.00,VWS V14.01,2013-05-16 06:01:00,
2013-05-16 02:06:00,80.6,54.8,29.90,NE,44,6.0,14.0,41,0.00,,SCT,0.00,0.00,VWS V14.01,2013-05-16 06:06:00,
2013-05-16 02:11:00,80.6,54.8,29.90,North,355,2.0,14.0,41,0.00,,SCT,0.00,0.00,VWS V14.01,2013-05-16 06:11:00,
2013-05-16 02:16:00,80.2,54.4,29.90,NNW,338,4.0,14.0,41,0.00,,SCT,0.00,0.00,VWS V14.01,2013-05-16 06:16:00,
2013-05-16 02:21:00,79.7,54.6,29.90,North,355,6.0,14.0,42,0.00,,SCT,0.00,0.00,VWS V14.01,2013-05-16 06:21:00,
2013-05-16 02:26:00,79.4,54.3,29.90,North,351,6.0,14.0,42,0.00,,SCT,0.00,0.00,VWS V14.01,2013-05-16 06:26:00,
2013-05-16 02:31:00,79.4,54.3,29.90,North,360,5.0,14.0,42,0.00,,SCT,0.00,0.00,VWS V14.01,2013-05-16 06:31:00,
2013-05-16 02:36:00,79.4,54.3,29.90,North,5,4.0,14.0,42,0.00,,SCT,0.00,0.00,VWS V14.01,2013-05-16 06:36:00,
2013-05-16 02:41:00,79.4,54.3,29.90,NNE,19,7.0,14.0,42,0.00,,SCT,0.00,0.00,VWS V14.01,2013-05-16 06:41:00,
2013-05-16 02:46:00,79.4,54.3,29.90,NNW,338,4.0,14.0,42,0.00,,SCT,0.00,0.00,VWS V14.01,2013-05-16 06:46:00,
2013-05-16 02:51:00,79.5,53.8,29.90,North,5,5.0,14.0,41,0.00,,SCT,0.00,0.00,VWS V14.01,2013-05-16 06:51:00,
2013-05-16 02:56:00,79.4,53.7,29.90,North,9,5.0,9.0,41,0.00,,SCT,0.00,0.00,VWS V14.01,2013-05-16 06:56:00,
2013-05-16 03:00:00,79.4,54.3,29.90,North,360,4.0,14.0,42,0.00,,SCT,0.00,0.00,VWS V14.01,2013-05-16 07:00:00,
2013-05-16 03:01:00,79.4,54.3,29.90,NNW,344,6.0,10.0,42,0.00,,SCT,0.00,0.00,VWS V14.01,2013-05-16 07:01:00,
2013-05-16 03:06:00,79.3,54.2,29.90,NNE,12,10.0,13.0,42,0.00,,SCT,0.00,0.00,VWS V14.01,2013-05-16 07:06:00,
2013-05-16 03:11:00,79.3,54.2,29.90,NNE,27,8.0,13.0,42,0.00,,SCT,0.00,0.00,VWS V14.01,2013-05-16 07:11:00,
2013-05-16 03:16:00,79.2,53.5,29.90,NNE,18,5.0,13.0,41,0.00,,SCT,0.00,0.00,VWS V14.01,2013-05-16 07:16:00,
2013-05-16 03:21:00,79.1,54.1,29.91,NE,43,5.0,13.0,42,0.00,,SCT,0.00,0.00,VWS V14.01,2013-05-16 07:21:00,
2013-05-16 03:26:00,79.1,53.4,29.90,NE,38,7.0,14.0,41,0.00,,SCT,0.00,0.00,VWS V14.01,2013-05-16 07:26:00,
2013-05-16 03:31:00,79.3,53.6,29.90,NE,52,10.0,14.0,41,0.00,,SCT,0.00,0.00,VWS V14.01,2013-05-16 07:31:00,
2013-05-16 03:36:00,79.6,53.2,29.90,NE,46,3.0,14.0,40,0.00,,SCT,0.00,0.00,VWS V14.01,2013-05-16 07:36:00,
2013-05-16 03:41:00,79.4,53.7,29.90,ENE,71,7.0,14.0,41,0.00,,SCT,0.00,0.00,VWS V14.01,2013-05-16 07:41:00,
2013-05-16 03:46:00,79.3,53.6,29.89,NE,45,7.0,14.0,41,0.00,,SCT,0.00,0.00,VWS V14.01,2013-05-16 07:46:00,
2013-05-16 03:51:00,79.0,53.3,29.89,ENE,71,5.0,14.0,41,0.00,,SCT,0.00,0.00,VWS V14.01,2013-05-16 07:51:00,
2013-05-16 03:56:00,79.0,53.3,29.90,ENE,65,7.0,8.0,41,0.00,,SCT,0.00,0.00,VWS V14.01,2013-05-16 07:56:00,
2013-05-16 04:00:00,79.0,53.3,29.90,ENE,57,6.0,14.0,41,0.00,,SCT,0.00,0.00,VWS V14.01,2013-05-16 08:00:00,
2013-05-16 04:01:00,78.8,53.8,29.89,NNE,32,8.0,10.0,42,0.00,,SCT,0.00,0.00,VWS V14.01,2013-05-16 08:01:00,
2013-05-16 04:06:00,78.8,53.1,29.90,NNE,30,11.0,16.0,41,0.00,,SCT,0.00,0.00,VWS V14.01,2013-05-16 08:06:00,
2013-05-16 04:11:00,78.9,53.2,29.90,NNE,26,8.0,16.0,41,0.00,,SCT,0.00,0.00,VWS V14.01,2013-05-16 08:11:00,
2013-05-16 04:16:00,79.0,53.3,29.90,NNE,32,7.0,16.0,41,0.00,,SCT,0.00,0.00,VWS V14.01,2013-05-16 08:16:00,
2013-05-16 04:21:00,78.9,53.2,29.90,NE,34,8.0,16.0,41,0.00,,SCT,0.00,0.00,VWS V14.01,2013-05-16 08:21:00,
2013-05-16 04:26:00,78.9,53.9,29.90,NNE,24,8.0,16.0,42,0.00,,SCT,0.00,0.00,VWS V14.01,2013-05-16 08:26:00,
2013-05-16 04:31:00,79.1,53.4,29.90,NNE,25,9.0,16.0,41,0.00,,SCT,0.00,0.00,VWS V14.01,2013-05-16 08:31:00,
2013-05-16 04:36:00,79.0,54.0,29.90,NE,44,12.0,16.0,42,0.00,,SCT,0.00,0.00,VWS V14.01,2013-05-16 08:36:00,
2013-05-16 04:41:00,79.0,54.0,29.90,NE,37,6.0,16.0,42,0.00,,SCT,0.00,0.00,VWS V14.01,2013-05-16 08:41:00,
2013-05-16 04:46:00,78.8,53.8,29.90,NE,38,6.0,16.0,42,0.00,,SCT,0.00,0.00,VWS V14.01,2013-05-16 08:46:00,
2013-05-16 04:51:00,78.7,53.7,29.90,ENE,60,7.0,16.0,42,0.00,,SCT,0.00,0.00,VWS V14.01,2013-05-16 08:51:00,
2013-05-16 04:56:00,78.5,53.5,29.90,ENE,67,10.0,13.0,42,0.00,,SCT,0.00,0.00,VWS V14.01,2013-05-16 08:56:00,
2013-05-16 05:00:00,78.6,53.6,29.90,ENE,65,8.0,16.0,42,0.00,,SCT,0.00,0.00,VWS V14.01,2013-05-16 09:00:00,
2013-05-16 05:01:00,78.4,53.4,29.90,NNE,27,6.0,13.0,42,0.00,,SCT,0.00,0.00,VWS V14.01,2013-05-16 09:01:00,
2013-05-16 05:06:00,78.4,53.4,29.90,NE,55,5.0,13.0,42,0.00,,SCT,0.00,0.00,VWS V14.01,2013-05-16 09:06:00,
2013-05-16 05:11:00,78.3,53.3,29.91,NNE,29,14.0,16.0,42,0.00,,SCT,0.00,0.00,VWS V14.01,2013-05-16 09:11:00,
2013-05-16 05:16:00,78.5,53.5,29.90,NE,47,8.0,16.0,42,0.00,,SCT,0.00,0.00,VWS V14.01,2013-05-16 09:16:00,
2013-05-16 05:21:00,78.6,53.6,29.90,NE,41,8.0,16.0,42,0.00,,SCT,0.00,0.00,VWS V14.01,2013-05-16 09:21:00,
2013-05-16 05:26:00,78.5,53.5,29.90,ENE,65,18.0,21.0,42,0.00,,SCT,0.00,0.00,VWS V14.01,2013-05-16 09:26:00,
2013-05-16 05:31:00,78.6,53.6,29.90,NE,52,11.0,21.0,42,0.00,,SCT,0.00,0.00,VWS V14.01,2013-05-16 09:31:00,
2013-05-16 05:36:00,78.5,53.5,29.90,ENE,65,4.0,21.0,42,0.00,,SCT,0.00,0.00,VWS V14.01,2013-05-16 09:36:00,
2013-05-16 05:40:00,78.3,53.3,29.90,ENE,75,11.0,21.0,42,0.00,,SCT,0.00,0.00,VWS V14.01,2013-05-16 09:40:00,
2013-05-16 05:45:00,78.4,53.4,29.90,ENE,66,11.0,21.0,42,0.00,,SCT,0.00,0.00,VWS V14.01,2013-05-16 09:45:00,
2013-05-16 05:50:00,78.4,53.4,29.90,ENE,74,7.0,21.0,42,0.00,,SCT,0.00,0.00,VWS V14.01,2013-05-16 09:50:00,
2013-05-16 05:55:00,78.4,52.8,29.91,ENE,58,14.0,17.0,41,0.00,,SCT,0.00,0.00,VWS V14.01,2013-05-16 09:55:00,
2013-05-16 06:00:00,78.3,53.3,29.91,NE,46,7.0,17.0,42,0.00,,SCT,0.00,0.00,VWS V14.01,2013-05-16 10:00:00,
2013-05-16 06:05:00,78.1,53.8,29.91,NE,55,6.0,17.0,43,0.00,,SCT,0.00,0.00,VWS V14.01,2013-05-16 10:05:00,
2013-05-16 06:10:00,77.8,53.5,29.91,NNE,32,6.0,17.0,43,0.00,,SCT,0.00,0.00,VWS V14.01,2013-05-16 10:10:00,
2013-05-16 06:16:00,77.7,53.5,29.91,ENE,77,8.0,17.0,43,0.00,,SCT,0.00,5.00,VWS V14.01,2013-05-16 10:16:00,
2013-05-16 06:21:00,77.5,52.6,29.91,NE,44,8.0,17.0,42,0.00,,SCT,0.00,11.00,VWS V14.01,2013-05-16 10:21:00,
2013-05-16 06:26:00,77.3,53.1,29.91,ENE,58,11.0,17.0,43,0.00,,SCT,0.00,14.00,VWS V14.01,2013-05-16 10:26:00,
2013-05-16 06:31:00,77.3,53.1,29.92,NE,44,8.0,17.0,43,0.00,,SCT,0.00,21.00,VWS V14.01,2013-05-16 10:31:00,
2013-05-16 06:36:00,77.4,53.2,29.92,NE,42,6.0,17.0,43,0.00,,SCT,0.00,21.00,VWS V14.01,2013-05-16 10:36:00,
2013-05-16 06:40:00,77.4,53.2,29.92,NE,51,7.0,17.0,43,0.00,,SCT,0.00,21.00,VWS V14.01,2013-05-16 10:40:00,
2013-05-16 06:45:00,77.4,52.5,29.93,NNE,32,7.0,17.0,42,0.00,,SCT,0.00,33.00,VWS V14.01,2013-05-16 10:45:00,
2013-05-16 06:50:00,77.3,52.5,29.93,NNE,24,5.0,17.0,42,0.00,,SCT,0.00,33.00,VWS V14.01,2013-05-16 10:50:00,
2013-05-16 06:55:00,77.5,52.6,29.93,NE,46,8.0,10.0,42,0.00,,SCT,0.00,35.00,VWS V14.01,2013-05-16 10:55:00,
2013-05-16 07:00:00,77.7,52.8,29.93,NE,42,5.0,11.0,42,0.00,,SCT,0.00,30.00,VWS V14.01,2013-05-16 11:00:00,
2013-05-16 07:05:00,77.7,52.8,29.93,NNE,29,5.0,11.0,42,0.00,,SCT,0.00,30.00,VWS V14.01,2013-05-16 11:05:00,
2013-05-16 07:10:00,77.7,53.5,29.93,NNE,30,5.0,11.0,43,0.00,,SCT,0.00,35.00,VWS V14.01,2013-05-16 11:10:00,
2013-05-16 07:15:00,77.6,53.4,29.93,NNW,342,5.0,11.0,43,0.00,,SCT,0.00,40.00,VWS V14.01,2013-05-16 11:15:00,
2013-05-16 07:20:00,77.7,53.5,29.94,NNE,13,3.0,11.0,43,0.00,,SCT,0.00,42.00,VWS V14.01,2013-05-16 11:20:00,
2013-05-16 07:25:00,77.8,53.5,29.94,North,5,1.0,11.0,43,0.00,,SCT,0.00,40.00,VWS V14.01,2013-05-16 11:25:00,
2013-05-16 07:30:00,77.9,53.6,29.94,NE,46,1.0,11.0,43,0.00,,SCT,0.00,37.00,VWS V14.01,2013-05-16 11:30:00,
2013-05-16 07:35:00,77.9,54.3,29.94,NNE,18,3.0,11.0,44,0.00,,SCT,0.00,39.00,VWS V14.01,2013-05-16 11:35:00,
2013-05-16 07:40:00,77.7,54.1,29.94,NNE,14,3.0,11.0,44,0.00,,SCT,0.00,44.00,VWS V14.01,2013-05-16 11:40:00,
2013-05-16 07:45:00,78.0,53.7,29.94,NNE,30,3.0,11.0,43,0.00,,SCT,0.00,47.00,VWS V14.01,2013-05-16 11:45:00,
2013-05-16 07:50:00,78.1,54.4,29.94,NNE,15,0.0,11.0,44,0.00,,SCT,0.00,49.00,VWS V14.01,2013-05-16 11:50:00,
2013-05-16 07:55:00,77.6,59.1,29.94,North,5,0.0,2.0,53,0.00,,SCT,0.00,53.00,VWS V14.01,2013-05-16 11:55:00,
2013-05-16 08:00:00,77.1,57.6,29.94,North,360,0.0,3.0,51,0.00,,SCT,0.00,56.00,VWS V14.01,2013-05-16 12:00:00,
2013-05-16 08:05:00,77.7,55.9,29.94,NE,38,1.0,8.0,47,0.00,,SCT,0.00,58.00,VWS V14.01,2013-05-16 12:05:00,
2013-05-16 08:10:00,78.4,55.3,29.94,NNE,19,6.0,8.0,45,0.00,,SCT,0.00,60.00,VWS V14.01,2013-05-16 12:10:00,
2013-05-16 08:15:00,78.9,55.2,29.94,NE,49,6.0,8.0,44,0.00,,SCT,0.00,62.00,VWS V14.01,2013-05-16 12:15:00,
2013-05-16 08:20:00,79.2,54.2,29.95,NE,36,5.0,9.0,42,0.00,,SCT,0.00,67.00,VWS V14.01,2013-05-16 12:20:00,
2013-05-16 08:25:00,79.2,54.2,29.95,NE,38,8.0,10.0,42,0.00,,SCT,0.00,86.00,VWS V14.01,2013-05-16 12:25:00,
2013-05-16 08:30:00,79.3,54.2,29.95,NE,37,5.0,10.0,42,0.00,,SCT,0.00,132.00,VWS V14.01,2013-05-16 12:30:00,
2013-05-16 08:35:00,79.5,54.4,29.95,NNE,30,6.0,10.0,42,0.00,,SCT,0.00,186.00,VWS V14.01,2013-05-16 12:35:00,
2013-05-16 08:40:00,79.5,55.1,29.95,ENE,70,5.0,10.0,43,0.00,,SCT,0.00,269.00,VWS V14.01,2013-05-16 12:40:00,
2013-05-16 08:45:00,79.8,55.3,29.95,East,83,1.0,10.0,43,0.00,,SCT,0.00,301.00,VWS V14.01,2013-05-16 12:45:00,
2013-05-16 08:50:00,80.1,55.6,29.94,East,82,1.0,10.0,43,0.00,,SCT,0.00,418.00,VWS V14.01,2013-05-16 12:50:00,
2013-05-16 08:55:00,80.8,56.2,29.95,NNW,338,2.0,2.0,43,0.00,,SCT,0.00,452.00,VWS V14.01,2013-05-16 12:55:00,
2013-05-16 09:00:00,80.9,55.0,29.95,NE,53,4.0,9.0,41,0.00,,SCT,0.00,461.00,VWS V14.01,2013-05-16 13:00:00,
2013-05-16 09:05:00,80.7,55.5,29.95,ENE,75,7.0,13.0,42,0.00,,SCT,0.00,454.00,VWS V14.01,2013-05-16 13:05:00,
2013-05-16 09:10:00,80.6,55.4,29.95,ENE,76,7.0,13.0,42,0.00,,SCT,0.00,424.00,VWS V14.01,2013-05-16 13:10:00,
2013-05-16 09:15:00,80.6,56.1,29.95,East,87,7.0,13.0,43,0.00,,SCT,0.00,448.00,VWS V14.01,2013-05-16 13:15:00,
2013-05-16 09:20:00,80.9,55.7,29.94,East,82,3.0,13.0,42,0.00,,SCT,0.00,483.00,VWS V14.01,2013-05-16 13:20:00,
2013-05-16 09:25:00,80.9,55.7,29.95,East,87,3.0,13.0,42,0.00,,SCT,0.00,538.00,VWS V14.01,2013-05-16 13:25:00,
2013-05-16 09:30:00,81.4,56.1,29.95,ENE,65,7.0,13.0,42,0.00,,SCT,0.00,555.00,VWS V14.01,2013-05-16 13:30:00,
2013-05-16 09:35:00,81.4,56.1,29.94,ENE,74,6.0,13.0,42,0.00,,SCT,0.00,573.00,VWS V14.01,2013-05-16 13:35:00,
2013-05-16 09:40:00,81.4,56.1,29.94,East,88,5.0,13.0,42,0.00,,SCT,0.00,585.00,VWS V14.01,2013-05-16 13:40:00,
2013-05-16 09:45:00,82.0,56.0,29.94,ENE,60,8.0,13.0,41,0.00,,SCT,0.00,601.00,VWS V14.01,2013-05-16 13:45:00,
2013-05-16 09:50:00,82.1,56.8,29.95,ESE,120,6.0,13.0,42,0.00,,SCT,0.00,615.00,VWS V14.01,2013-05-16 13:50:00,
2013-05-16 09:55:00,82.5,57.1,29.94,NE,55,5.0,6.0,42,0.00,,SCT,0.00,541.00,VWS V14.01,2013-05-16 13:55:00,
2013-05-16 10:00:00,82.3,56.9,29.94,East,100,6.0,8.0,42,0.00,,SCT,0.00,642.00,VWS V14.01,2013-05-16 14:00:00,
2013-05-16 10:05:00,82.0,56.7,29.94,East,80,5.0,14.0,42,0.00,,SCT,0.00,615.00,VWS V14.01,2013-05-16 14:05:00,
2013-05-16 10:10:00,82.1,58.0,29.94,ENE,78,12.0,14.0,44,0.00,,SCT,0.00,664.00,VWS V14.01,2013-05-16 14:10:00,
2013-05-16 10:15:00,82.3,57.6,29.94,ENE,57,8.0,14.0,43,0.00,,SCT,0.00,643.00,VWS V14.01,2013-05-16 14:15:00,
2013-05-16 10:20:00,82.5,58.4,29.94,East,86,5.0,14.0,44,0.00,,SCT,0.00,682.00,VWS V14.01,2013-05-16 14:20:00,
2013-05-16 10:25:00,82.5,57.8,29.95,ESE,108,8.0,14.0,43,0.00,,SCT,0.00,693.00,VWS V14.01,2013-05-16 14:25:00,
2013-05-16 10:30:00,82.5,57.8,29.95,ENE,76,10.0,15.0,43,0.00,,SCT,0.00,708.00,VWS V14.01,2013-05-16 14:30:00,
2013-05-16 10:35:00,82.5,58.4,29.95,East,80,11.0,15.0,44,0.00,,SCT,0.00,700.00,VWS V14.01,2013-05-16 14:35:00,
2013-05-16 10:40:00,82.8,58.7,29.95,ENE,67,3.0,15.0,44,0.00,,SCT,0.00,737.00,VWS V14.01,2013-05-16 14:40:00,
2013-05-16 10:45:00,82.9,58.8,29.95,East,96,8.0,15.0,44,0.00,,SCT,0.00,747.00,VWS V14.01,2013-05-16 14:45:00,
2013-05-16 10:50:00,83.1,58.3,29.95,ESE,107,6.0,15.0,43,0.00,,SCT,0.00,714.00,VWS V14.01,2013-05-16 14:50:00,
2013-05-16 10:55:00,83.5,58.0,29.95,East,86,10.0,14.0,42,0.00,,SCT,0.00,756.00,VWS V14.01,2013-05-16 14:55:00,
2013-05-16 11:00:00,83.2,58.4,29.95,East,86,4.0,14.0,43,0.00,,SCT,0.00,772.00,VWS V14.01,2013-05-16 15:00:00,
2013-05-16 11:05:00,83.6,58.8,29.95,ESE,111,4.0,14.0,43,0.00,,SCT,0.00,773.00,VWS V14.01,2013-05-16 15:05:00,
2013-05-16 11:10:00,84.4,59.5,29.95,ENE,64,11.0,14.0,43,0.00,,SCT,0.00,768.00,VWS V14.01,2013-05-16 15:10:00,
2013-05-16 11:15:00,83.8,58.9,29.95,East,84,13.0,15.0,43,0.00,,SCT,0.00,708.00,VWS V14.01,2013-05-16 15:15:00,
2013-05-16 11:20:00,83.6,58.8,29.95,NE,40,7.0,15.0,43,0.00,,SCT,0.00,789.00,VWS V14.01,2013-05-16 15:20:00,
2013-05-16 11:25:00,84.1,58.5,29.96,North,5,7.0,15.0,42,0.00,,SCT,0.00,816.00,VWS V14.01,2013-05-16 15:25:00,
2013-05-16 11:30:00,84.9,59.3,29.95,NNE,30,2.0,15.0,42,0.00,,SCT,0.00,893.00,VWS V14.01,2013-05-16 15:30:00,
2013-05-16 11:35:00,85.1,59.5,29.96,East,87,2.0,15.0,42,0.00,,SCT,0.00,921.00,VWS V14.01,2013-05-16 15:35:00,
2013-05-16 11:40:00,85.2,58.9,29.96,ENE,74,8.0,15.0,41,0.00,,SCT,0.00,148.00,VWS V14.01,2013-05-16 15:40:00,
2013-05-16 11:45:00,83.6,58.8,29.96,ENE,63,6.0,15.0,43,0.00,,SCT,0.00,181.00,VWS V14.01,2013-05-16 15:45:00,
2013-05-16 11:50:00,83.6,60.0,29.95,East,88,0.0,15.0,45,0.00,,SCT,0.00,243.00,VWS V14.01,2013-05-16 15:50:00,
2013-05-16 11:55:00,83.7,59.5,29.95,NNE,14,4.0,5.0,44,0.00,,SCT,0.00,800.00,VWS V14.01,2013-05-16 15:55:00,
2013-05-16 12:00:00,84.5,60.2,29.95,ENE,59,4.0,10.0,44,0.00,,SCT,0.00,830.00,VWS V14.01,2013-05-16 16:00:00,
2013-05-16 12:05:00,84.8,59.8,29.95,NNE,30,8.0,10.0,43,0.00,,SCT,0.00,826.00,VWS V14.01,2013-05-16 16:05:00,
2013-05-16 12:10:00,85.1,59.5,29.94,NE,49,3.0,11.0,42,0.00,,SCT,0.00,824.00,VWS V14.01,2013-05-16 16:10:00,
2013-05-16 12:15:00,85.8,60.1,29.94,ENE,57,8.0,11.0,42,0.00,,SCT,0.00,807.00,VWS V14.01,2013-05-16 16:15:00,
2013-05-16 12:20:00,85.0,58.7,29.94,ENE,65,7.0,12.0,41,0.00,,SCT,0.00,863.00,VWS V14.01,2013-05-16 16:20:00,
2013-05-16 12:25:00,85.2,58.9,29.94,NE,45,12.0,12.0,41,0.00,,SCT,0.00,856.00,VWS V14.01,2013-05-16 16:25:00,
2013-05-16 12:30:00,85.2,58.9,29.94,NE,45,12.0,12.0,41,0.00,,SCT,0.00,856.00,VWS V14.01,2013-05-16 16:30:00,
2013-05-16 12:35:00,85.8,60.1,29.94,NNE,28,3.0,12.0,42,0.00,,SCT,0.00,870.00,VWS V14.01,2013-05-16 16:35:00,
2013-05-16 12:40:00,86.2,59.8,29.94,East,94,12.0,17.0,41,0.00,,SCT,0.00,858.00,VWS V14.01,2013-05-16 16:40:00,
2013-05-16 12:45:00,85.4,59.7,29.94,ENE,61,7.0,17.0,42,0.00,,SCT,0.00,751.00,VWS V14.01,2013-05-16 16:45:00,
2013-05-16 12:50:00,85.4,60.4,29.94,North,355,9.0,17.0,43,0.00,,SCT,0.00,826.00,VWS V14.01,2013-05-16 16:50:00,
2013-05-16 12:55:00,85.5,59.8,29.93,NE,55,4.0,9.0,42,0.00,,SCT,0.00,860.00,VWS V14.01,2013-05-16 16:55:00,
2013-05-16 13:00:00,87.0,59.8,29.93,NE,42,9.0,11.0,40,0.00,,SCT,0.00,886.00,VWS V14.01,2013-05-16 17:00:00,
2013-05-16 13:05:00,86.8,61.0,29.93,North,5,9.0,12.0,42,0.00,,SCT,0.00,313.00,VWS V14.01,2013-05-16 17:05:00,
2013-05-16 13:10:00,86.2,61.1,29.93,ENE,74,6.0,12.0,43,0.00,,SCT,0.00,276.00,VWS V14.01,2013-05-16 17:10:00,
2013-05-16 13:15:00,86.1,59.7,29.93,ESE,109,9.0,12.0,41,0.00,,SCT,0.00,295.00,VWS V14.01,2013-05-16 17:15:00,
2013-05-16 13:20:00,86.9,61.7,29.93,NNE,26,7.0,12.0,43,0.00,,SCT,0.00,341.00,VWS V14.01,2013-05-16 17:20:00,
2013-05-16 13:25:00,87.0,60.5,29.93,NNE,21,3.0,12.0,41,0.00,,SCT,0.00,341.00,VWS V14.01,2013-05-16 17:25:00,
2013-05-16 13:30:00,87.5,60.9,29.93,NNE,22,9.0,12.0,41,0.00,,SCT,0.00,318.00,VWS V14.01,2013-05-16 17:30:00,
2013-05-16 13:35:00,87.3,60.8,29.93,NNE,16,10.0,14.0,41,0.00,,SCT,0.00,918.00,VWS V14.01,2013-05-16 17:35:00,
2013-05-16 13:40:00,87.2,60.7,29.92,NNE,18,3.0,14.0,41,0.00,,SCT,0.00,970.00,VWS V14.01,2013-05-16 17:40:00,
2013-05-16 13:45:00,87.9,59.9,29.92,North,355,4.0,14.0,39,0.00,,SCT,0.00,902.00,VWS V14.01,2013-05-16 17:45:00,
2013-05-16 13:50:00,87.3,60.8,29.92,ENE,70,4.0,14.0,41,0.00,,SCT,0.00,399.00,VWS V14.01,2013-05-16 17:50:00,
2013-05-16 13:55:00,86.8,61.0,29.92,NE,55,6.0,12.0,42,0.00,,SCT,0.00,399.00,VWS V14.01,2013-05-16 17:55:00,
2013-05-16 14:00:00,87.3,60.0,29.92,NE,37,3.0,12.0,40,0.00,,SCT,0.00,439.00,VWS V14.01,2013-05-16 18:00:00,
2013-05-16 14:05:00,88.0,60.7,29.91,NNE,17,0.0,12.0,40,0.00,,SCT,0.00,1013.00,VWS V14.01,2013-05-16 18:05:00,
2013-05-16 14:10:00,87.4,60.1,29.91,NNE,12,5.0,12.0,40,0.00,,SCT,0.00,341.00,VWS V14.01,2013-05-16 18:10:00,
2013-05-16 14:15:00,87.4,60.1,29.91,North,10,6.0,12.0,40,0.00,,SCT,0.00,283.00,VWS V14.01,2013-05-16 18:15:00,
2013-05-16 14:20:00,87.4,60.1,29.90,NE,53,11.0,13.0,40,0.00,,SCT,0.00,383.00,VWS V14.01,2013-05-16 18:20:00,
2013-05-16 14:25:00,86.9,61.1,29.90,North,355,6.0,14.0,42,0.00,,SCT,0.00,308.00,VWS V14.01,2013-05-16 18:25:00,
2013-05-16 14:30:00,87.1,59.9,29.91,NNE,19,7.0,14.0,40,0.00,,SCT,0.00,809.00,VWS V14.01,2013-05-16 18:30:00,
2013-05-16 14:35:00,87.4,61.5,29.91,NW,308,7.0,15.0,42,0.00,,SCT,0.00,388.00,VWS V14.01,2013-05-16 18:35:00,
2013-05-16 14:40:00,86.6,62.1,29.90,North,5,10.0,15.0,44,0.00,,SCT,0.00,250.00,VWS V14.01,2013-05-16 18:40:00,
2013-05-16 14:45:00,85.8,62.7,29.90,North,5,5.0,15.0,46,0.00,,SCT,0.00,267.00,VWS V14.01,2013-05-16 18:45:00,
2013-05-16 14:50:00,85.7,61.3,29.91,NNE,17,7.0,15.0,44,0.00,,SCT,0.00,158.00,VWS V14.01,2013-05-16 18:50:00,
2013-05-16 14:55:00,85.3,62.2,29.93,East,80,18.0,18.0,46,0.00,,SCT,0.00,40.00,VWS V14.01,2013-05-16 18:55:00,
2013-05-16 15:00:00,80.4,62.2,29.95,ESE,121,21.0,48.0,54,0.00,,SCT,0.00,16.00,VWS V14.01,2013-05-16 19:00:00,
2013-05-16 15:05:00,72.6,62.7,29.97,SSE,163,16.0,48.0,71,0.09,,SCT,0.09,9.00,VWS V14.01,2013-05-16 19:05:00,
2013-05-16 15:10:00,68.3,61.9,29.98,South,169,15.0,48.0,80,0.18,,SCT,0.18,12.00,VWS V14.01,2013-05-16 19:10:00,
2013-05-16 15:15:00,67.4,62.1,29.98,SSE,156,11.0,48.0,83,0.19,,SCT,0.19,5.00,VWS V14.01,2013-05-16 19:15:00,
2013-05-16 15:20:00,67.1,62.5,29.98,SSW,210,3.0,48.0,85,0.27,,SCT,0.27,7.00,VWS V14.01,2013-05-16 19:20:00,
2013-05-16 15:25:00,67.1,63.1,29.95,NW,306,6.0,48.0,87,0.37,,SCT,0.37,9.00,VWS V14.01,2013-05-16 19:25:00,
2013-05-16 15:30:00,66.4,62.7,29.95,NNW,338,0.0,48.0,88,0.38,,SCT,0.38,12.00,VWS V14.01,2013-05-16 19:30:00,
2013-05-16 15:35:00,66.9,63.2,29.95,North,355,4.0,48.0,88,0.39,,SCT,0.39,14.00,VWS V14.01,2013-05-16 19:35:00,
2013-05-16 15:40:00,66.7,63.0,29.95,North,360,3.0,48.0,88,0.39,,SCT,0.39,18.00,VWS V14.01,2013-05-16 19:40:00,
2013-05-16 15:45:00,66.4,63.1,29.94,NW,306,4.0,48.0,89,0.40,,SCT,0.40,23.00,VWS V14.01,2013-05-16 19:45:00,
2013-05-16 15:50:00,66.0,63.0,29.94,NW,313,0.0,48.0,90,0.40,,SCT,0.40,33.00,VWS V14.01,2013-05-16 19:50:00,
2013-05-16 15:55:00,66.1,63.4,29.94,NW,313,0.0,2.0,91,0.40,,SCT,0.40,47.00,VWS V14.01,2013-05-16 19:55:00,
2013-05-16 16:00:00,66.3,63.9,29.93,NW,313,3.0,4.0,92,0.40,,SCT,0.40,60.00,VWS V14.01,2013-05-16 20:00:00,
2013-05-16 16:05:00,66.2,64.1,29.93,NW,313,0.0,4.0,93,0.40,,SCT,0.40,79.00,VWS V14.01,2013-05-16 20:05:00,
2013-05-16 16:10:00,66.6,64.8,29.94,NE,55,0.0,4.0,94,0.40,,SCT,0.40,105.00,VWS V14.01,2013-05-16 20:10:00,
2013-05-16 16:15:00,66.7,64.9,29.94,NW,325,2.0,4.0,94,0.40,,SCT,0.40,142.00,VWS V14.01,2013-05-16 20:15:00,
2013-05-16 16:20:00,66.9,65.1,29.94,NW,326,0.0,4.0,94,0.40,,SCT,0.40,195.00,VWS V14.01,2013-05-16 20:20:00,
2013-05-16 16:25:00,67.7,65.9,29.95,NNW,327,3.0,4.0,94,0.40,,SCT,0.40,230.00,VWS V14.01,2013-05-16 20:25:00,
2013-05-16 16:30:00,68.8,66.4,29.95,North,355,0.0,5.0,92,0.40,,SCT,0.40,209.00,VWS V14.01,2013-05-16 20:30:00,
2013-05-16 16:35:00,68.8,66.1,29.95,North,355,0.0,5.0,91,0.40,,SCT,0.40,207.00,VWS V14.01,2013-05-16 20:35:00,
2013-05-16 16:40:00,68.6,66.5,29.95,North,355,0.0,5.0,93,0.40,,SCT,0.40,216.00,VWS V14.01,2013-05-16 20:40:00,
2013-05-16 16:45:00,69.1,66.4,29.95,North,360,0.0,5.0,91,0.40,,SCT,0.40,221.00,VWS V14.01,2013-05-16 20:45:00,
2013-05-16 16:50:00,69.9,67.2,29.95,North,360,0.0,5.0,91,0.40,,SCT,0.40,204.00,VWS V14.01,2013-05-16 20:50:00,
2013-05-16 16:55:00,70.1,67.0,29.96,NNE,32,4.0,4.0,90,0.00,,SCT,0.40,185.00,VWS V14.01,2013-05-16 20:55:00,
2013-05-16 17:00:00,69.9,67.2,29.96,NE,34,2.0,4.0,91,0.00,,SCT,0.40,327.00,VWS V14.01,2013-05-16 21:00:00,
2013-05-16 17:05:00,70.2,67.4,29.95,NE,37,3.0,4.0,91,0.00,,SCT,0.40,403.00,VWS V14.01,2013-05-16 21:05:00,
2013-05-16 17:10:00,70.3,66.9,29.95,NE,47,1.0,4.0,89,0.00,,SCT,0.40,279.00,VWS V14.01,2013-05-16 21:10:00,
2013-05-16 17:15:00,71.2,68.1,29.95,NE,40,2.0,4.0,90,0.00,,SCT,0.40,193.00,VWS V14.01,2013-05-16 21:15:00,
2013-05-16 17:20:00,71.1,67.7,29.95,NE,40,0.0,4.0,89,0.00,,SCT,0.40,156.00,VWS V14.01,2013-05-16 21:20:00,
2013-05-16 17:25:00,70.7,67.6,29.95,NE,40,0.0,4.0,90,0.00,,SCT,0.40,141.00,VWS V14.01,2013-05-16 21:25:00,
2013-05-16 17:30:00,71.1,67.4,29.95,NE,40,0.0,4.0,88,0.00,,SCT,0.40,141.00,VWS V14.01,2013-05-16 21:30:00,
2013-05-16 17:35:00,71.4,67.3,29.95,NE,40,3.0,5.0,87,0.00,,SCT,0.40,172.00,VWS V14.01,2013-05-16 21:35:00,
2013-05-16 17:40:00,71.7,68.3,29.95,NE,40,0.0,5.0,89,0.00,,SCT,0.40,357.00,VWS V14.01,2013-05-16 21:40:00,
2013-05-16 17:45:00,71.7,67.3,29.95,NNE,14,3.0,6.0,86,0.00,,SCT,0.40,209.00,VWS V14.01,2013-05-16 21:45:00,
2013-05-16 17:50:00,71.6,68.2,29.94,NW,321,0.0,6.0,89,0.00,,SCT,0.40,220.00,VWS V14.01,2013-05-16 21:50:00,
2013-05-16 17:55:00,71.7,67.6,29.94,NW,321,0.0,3.0,87,0.00,,SCT,0.40,202.00,VWS V14.01,2013-05-16 21:55:00,
2013-05-16 18:00:00,71.9,68.5,29.94,SSE,157,0.0,4.0,89,0.00,,SCT,0.40,364.00,VWS V14.01,2013-05-16 22:00:00,
2013-05-16 18:05:00,72.1,68.7,29.94,SSE,159,0.0,5.0,89,0.00,,SCT,0.40,311.00,VWS V14.01,2013-05-16 22:05:00,
2013-05-16 18:10:00,72.5,68.8,29.94,SE,138,0.0,5.0,88,0.00,,SCT,0.40,190.00,VWS V14.01,2013-05-16 22:10:00,
2013-05-16 18:15:00,72.6,68.2,29.94,ESE,121,1.0,5.0,86,0.00,,SCT,0.40,162.00,VWS V14.01,2013-05-16 22:15:00,
2013-05-16 18:20:00,72.5,68.8,29.95,ESE,119,0.0,5.0,88,0.00,,SCT,0.40,146.00,VWS V14.01,2013-05-16 22:20:00,
2013-05-16 18:25:00,72.8,68.4,29.95,ESE,119,1.0,5.0,86,0.00,,SCT,0.40,128.00,VWS V14.01,2013-05-16 22:25:00,
2013-05-16 18:30:00,72.8,68.4,29.95,East,99,2.0,5.0,86,0.00,,SCT,0.40,111.00,VWS V14.01,2013-05-16 22:30:00,
2013-05-16 18:35:00,72.7,68.3,29.95,ENE,76,3.0,5.0,86,0.00,,SCT,0.40,118.00,VWS V14.01,2013-05-16 22:35:00,
2013-05-16 18:40:00,73.0,67.2,29.95,NE,46,2.0,5.0,82,0.00,,SCT,0.40,123.00,VWS V14.01,2013-05-16 22:40:00,
2013-05-16 18:44:00,73.2,68.4,29.95,NE,46,0.0,5.0,85,0.00,,SCT,0.40,109.00,VWS V14.01,2013-05-16 22:44:00,
2013-05-16 18:49:00,73.0,68.2,29.95,NE,46,2.0,5.0,85,0.00,,SCT,0.40,104.00,VWS V14.01,2013-05-16 22:49:00,
2013-05-16 18:54:00,73.0,68.2,29.95,NE,46,0.0,1.0,85,0.00,,SCT,0.40,100.00,VWS V14.01,2013-05-16 22:54:00,
2013-05-16 18:59:00,72.7,69.3,29.95,NE,46,0.0,1.0,89,0.00,,SCT,0.40,97.00,VWS V14.01,2013-05-16 22:59:00,
2013-05-16 19:00:00,73.0,68.2,29.95,NE,46,0.0,5.0,85,0.00,,SCT,0.40,104.00,VWS V14.01,2013-05-16 23:00:00,
2013-05-16 19:04:00,72.7,69.6,29.96,NE,46,0.0,1.0,90,0.00,,SCT,0.40,84.00,VWS V14.01,2013-05-16 23:04:00,
2013-05-16 19:09:00,72.5,69.4,29.97,NE,45,0.0,1.0,90,0.00,,SCT,0.40,70.00,VWS V14.01,2013-05-16 23:09:00,
2013-05-16 19:14:00,72.3,69.5,29.97,NE,46,0.0,1.0,91,0.00,,SCT,0.40,56.00,VWS V14.01,2013-05-16 23:14:00,
2013-05-16 19:19:00,72.2,69.4,29.97,NE,45,0.0,2.0,91,0.00,,SCT,0.40,40.00,VWS V14.01,2013-05-16 23:19:00,
2013-05-16 19:24:00,72.2,69.4,29.97,NE,45,0.0,2.0,91,0.00,,SCT,0.40,30.00,VWS V14.01,2013-05-16 23:24:00,
2013-05-16 19:29:00,71.8,68.7,29.97,NE,45,2.0,2.0,90,0.00,,SCT,0.40,18.00,VWS V14.01,2013-05-16 23:29:00,
2013-05-16 19:34:00,71.8,69.0,29.97,NE,46,1.0,2.0,91,0.00,,SCT,0.40,11.00,VWS V14.01,2013-05-16 23:34:00,
2013-05-16 19:39:00,71.8,68.4,29.97,NE,42,2.0,3.0,89,0.00,,SCT,0.40,9.00,VWS V14.01,2013-05-16 23:39:00,
2013-05-16 19:44:00,71.6,68.8,29.97,NE,42,2.0,3.0,91,0.00,,SCT,0.40,9.00,VWS V14.01,2013-05-16 23:44:00,
2013-05-16 19:49:00,70.8,68.1,29.97,NE,38,3.0,4.0,91,0.00,,SCT,0.40,9.00,VWS V14.01,2013-05-16 23:49:00,
2013-05-16 19:54:00,70.7,67.6,29.97,North,350,5.0,6.0,90,0.00,,SCT,0.40,7.00,VWS V14.01,2013-05-16 23:54:00,
2013-05-16 19:59:00,71.6,66.5,29.97,North,10,5.0,6.0,84,0.00,,SCT,0.40,5.00,VWS V14.01,2013-05-16 23:59:00,
2013-05-16 20:00:00,70.7,67.9,29.97,NNW,347,3.0,7.0,91,0.00,,SCT,0.40,9.00,VWS V14.01,2013-05-17 00:00:00,
2013-05-16 20:04:00,72.4,66.9,29.98,NNE,13,4.0,6.0,83,0.00,,SCT,0.40,5.00,VWS V14.01,2013-05-17 00:04:00,
2013-05-16 20:09:00,72.8,66.3,29.98,North,5,5.0,7.0,80,0.00,,SCT,0.40,0.00,VWS V14.01,2013-05-17 00:09:00,
2013-05-16 20:14:00,72.9,66.4,29.98,NNE,22,2.0,7.0,80,0.00,,SCT,0.40,0.00,VWS V14.01,2013-05-17 00:14:00,
2013-05-16 20:19:00,73.1,65.8,29.98,NNE,25,4.0,7.0,78,0.00,,SCT,0.40,0.00,VWS V14.01,2013-05-17 00:19:00,
2013-05-16 20:24:00,73.6,65.2,29.99,NNE,21,5.0,9.0,75,0.00,,SCT,0.40,0.00,VWS V14.01,2013-05-17 00:24:00,
2013-05-16 20:29:00,74.0,64.8,29.99,NNE,26,4.0,9.0,73,0.00,,SCT,0.40,0.00,VWS V14.01,2013-05-17 00:29:00,
2013-05-16 20:34:00,73.9,64.7,29.99,NNE,19,2.0,9.0,73,0.00,,SCT,0.40,0.00,VWS V14.01,2013-05-17 00:34:00,
2013-05-16 20:39:00,74.0,64.4,29.99,NNE,17,4.0,9.0,72,0.00,,SCT,0.40,0.00,VWS V14.01,2013-05-17 00:39:00,
2013-05-16 20:44:00,74.1,64.1,29.99,NNE,17,1.0,9.0,71,0.00,,SCT,0.40,0.00,VWS V14.01,2013-05-17 00:44:00,
2013-05-16 20:49:00,74.1,64.5,29.99,NNE,17,3.0,9.0,72,0.00,,SCT,0.40,0.00,VWS V14.01,2013-05-17 00:49:00,
2013-05-16 20:54:00,74.3,63.9,30.00,NNE,17,2.0,3.0,70,0.00,,SCT,0.40,0.00,VWS V14.01,2013-05-17 00:54:00,
2013-05-16 20:59:00,74.0,64.4,30.00,NNE,17,1.0,3.0,72,0.00,,SCT,0.40,0.00,VWS V14.01,2013-05-17 00:59:00,
2013-05-16 21:00:00,74.2,63.8,29.99,NNE,17,2.0,9.0,70,0.00,,SCT,0.40,0.00,VWS V14.01,2013-05-17 01:00:00,
2013-05-16 21:04:00,73.6,65.2,30.00,NNE,17,3.0,3.0,75,0.00,,SCT,0.40,0.00,VWS V14.01,2013-05-17 01:04:00,
2013-05-16 21:09:00,73.6,64.0,30.00,NNE,17,1.0,4.0,72,0.00,,SCT,0.40,0.00,VWS V14.01,2013-05-17 01:09:00,
2013-05-16 21:14:00,73.1,65.1,30.00,NNE,17,2.0,4.0,76,0.00,,SCT,0.40,0.00,VWS V14.01,2013-05-17 01:14:00,
2013-05-16 21:19:00,73.1,64.3,30.01,NNE,17,0.0,4.0,74,0.00,,SCT,0.40,0.00,VWS V14.01,2013-05-17 01:19:00,
2013-05-16 21:24:00,72.9,65.3,30.01,NNE,17,1.0,4.0,77,0.00,,SCT,0.40,0.00,VWS V14.01,2013-05-17 01:24:00,
2013-05-16 21:29:00,72.3,65.8,30.01,NNE,18,1.0,4.0,80,0.00,,SCT,0.40,0.00,VWS V14.01,2013-05-17 01:29:00,
2013-05-16 21:34:00,72.0,65.5,30.01,NNE,19,1.0,4.0,80,0.00,,SCT,0.40,0.00,VWS V14.01,2013-05-17 01:34:00,
2013-05-16 21:39:00,70.7,66.0,30.02,NNE,19,0.0,4.0,85,0.00,,SCT,0.40,0.00,VWS V14.01,2013-05-17 01:39:00,
2013-05-16 21:44:00,69.8,65.4,30.02,NNE,19,0.0,4.0,86,0.00,,SCT,0.40,0.00,VWS V14.01,2013-05-17 01:44:00,
2013-05-16 21:49:00,70.5,64.8,30.02,NNE,19,1.0,4.0,82,0.00,,SCT,0.40,0.00,VWS V14.01,2013-05-17 01:49:00,
2013-05-16 21:54:00,71.5,64.3,30.02,NNE,19,0.0,3.0,78,0.00,,SCT,0.40,0.00,VWS V14.01,2013-05-17 01:54:00,
2013-05-16 21:59:00,72.0,64.4,30.03,NNE,19,2.0,3.0,77,0.00,,SCT,0.40,0.00,VWS V14.01,2013-05-17 01:59:00,
2013-05-16 22:00:00,71.3,64.5,30.02,NNE,19,0.0,4.0,79,0.00,,SCT,0.40,0.00,VWS V14.01,2013-05-17 02:00:00,
2013-05-16 22:04:00,72.2,64.2,30.03,NNE,19,2.0,4.0,76,0.00,,SCT,0.40,0.00,VWS V14.01,2013-05-17 02:04:00,
2013-05-16 22:09:00,72.3,63.6,30.03,East,86,0.0,5.0,74,0.00,,SCT,0.40,0.00,VWS V14.01,2013-05-17 02:09:00,
2013-05-16 22:14:00,72.3,63.2,30.03,ESE,114,6.0,7.0,73,0.00,,SCT,0.40,0.00,VWS V14.01,2013-05-17 02:14:00,
2013-05-16 22:19:00,72.6,63.1,30.03,ESE,102,4.0,7.0,72,0.00,,SCT,0.40,0.00,VWS V14.01,2013-05-17 02:19:00,
2013-05-16 22:24:00,72.4,63.3,30.03,East,100,6.0,8.0,73,0.00,,SCT,0.40,0.00,VWS V14.01,2013-05-17 02:24:00,
2013-05-16 22:29:00,72.2,63.5,30.04,ENE,67,5.0,8.0,74,0.00,,SCT,0.40,0.00,VWS V14.01,2013-05-17 02:29:00,
2013-05-16 22:34:00,72.0,63.3,30.04,NE,54,2.0,8.0,74,0.00,,SCT,0.40,0.00,VWS V14.01,2013-05-17 02:34:00,
2013-05-16 22:39:00,72.1,63.0,30.04,NE,49,3.0,8.0,73,0.00,,SCT,0.40,0.00,VWS V14.01,2013-05-17 02:39:00,
2013-05-16 22:44:00,72.1,63.0,30.04,NE,44,5.0,8.0,73,0.00,,SCT,0.40,0.00,VWS V14.01,2013-05-17 02:44:00,
2013-05-16 22:49:00,71.9,63.2,30.04,NE,52,3.0,8.0,74,0.00,,SCT,0.40,0.00,VWS V14.01,2013-05-17 02:49:00,
2013-05-16 22:54:00,71.7,63.4,30.04,ENE,63,3.0,5.0,75,0.00,,SCT,0.40,0.00,VWS V14.01,2013-05-17 02:54:00,
2013-05-16 22:59:00,71.6,63.3,30.04,NE,42,3.0,5.0,75,0.00,,SCT,0.40,0.00,VWS V14.01,2013-05-17 02:59:00,
2013-05-16 23:00:00,71.7,63.4,30.04,NE,48,3.0,8.0,75,0.00,,SCT,0.40,0.00,VWS V14.01,2013-05-17 03:00:00,
2013-05-16 23:04:00,71.5,62.8,30.03,NE,51,2.0,5.0,74,0.00,,SCT,0.40,0.00,VWS V14.01,2013-05-17 03:04:00,
2013-05-16 23:09:00,71.3,63.0,30.03,ENE,74,2.0,5.0,75,0.00,,SCT,0.40,0.00,VWS V14.01,2013-05-17 03:09:00,
2013-05-16 23:14:00,71.3,63.0,30.04,ENE,61,3.0,5.0,75,0.00,,SCT,0.40,0.00,VWS V14.01,2013-05-17 03:14:00,
2013-05-16 23:19:00,71.2,63.3,30.04,NE,55,0.0,5.0,76,0.00,,SCT,0.40,0.00,VWS V14.01,2013-05-17 03:19:00,
2013-05-16 23:24:00,71.3,62.6,30.04,NE,55,0.0,5.0,74,0.00,,SCT,0.40,0.00,VWS V14.01,2013-05-17 03:24:00,
2013-05-16 23:29:00,71.4,62.7,30.04,NE,37,1.0,5.0,74,0.00,,SCT,0.40,0.00,VWS V14.01,2013-05-17 03:29:00,
2013-05-16 23:34:00,71.3,62.6,30.04,NE,34,3.0,5.0,74,0.00,,SCT,0.40,0.00,VWS V14.01,2013-05-17 03:34:00,
2013-05-16 23:39:00,71.4,62.3,30.03,NE,34,0.0,5.0,73,0.00,,SCT,0.40,0.00,VWS V14.01,2013-05-17 03:39:00,
2013-05-16 23:44:00,71.7,62.2,30.03,NE,34,0.0,5.0,72,0.00,,SCT,0.40,0.00,VWS V14.01,2013-05-17 03:44:00,
2013-05-16 23:49:00,71.9,62.4,30.03,NE,34,0.0,5.0,72,0.00,,SCT,0.40,0.00,VWS V14.01,2013-05-17 03:49:00,
2013-05-16 23:54:00,71.8,62.3,30.03,NE,34,0.0,1.0,72,0.00,,SCT,0.00,0.00,VWS V14.01,2013-05-17 03:54:00,
2013-05-16 23:59:00,71.5,62.4,30.03,NE,34,0.0,1.0,73,0.00,,SCT,0.00,0.00,VWS V14.01,2013-05-17 03:59:00,